NOAA 16 DEB, 41059

Orbit data source: Space-Track

NOAA 16 DEB, 41059 is space debris in SSO originally from a launch on Thu, 21 Sep 2000 UTC launched from the Air Force Western Test Range (AFWTR). Debris objects in space refer to the collection of defunct objects orbiting the Earth. Examples of debris include non-operational satellites, rocket bodies, and fragments generated from explosions, collisions, or faulty payload assembly.

Loading next visibility...
Identifier
41059, 2000-055S
Orbit
SSO
Country
Flag of USUS
Related business
Manufacturer
Unknown
Mission
Spacecraft
Bus & Motor
Unknown
Mass
Unknown
Launch date (UTC)
2000-09-21 (25 years ago)
Launch vehicle
Unknown
Launch site
Air Force Western Test Range (AFWTR)
Object type
Payload
Rocket body
Debris
Shape & HBR
Unknown shape, 0.2 m
Radar Cross Section
Small (<0.1 m²)

Expand to show TLE details & history
Last TLE update: 8 hours ago

TLE from 8 hours ago
0 NOAA 16 DEB
1 41059U 00055S   25349.92801673  .00000793  00000-0  39478-3 0  9991
2 41059  98.6432  60.2407 0022008  93.1523 267.2172 14.19654557519983
Epoch: 2025-12-15T22:16Z
TLE epoch observation values (Epoch: 2025-12-15T22:16:20.645Z)
Latitude
-0.00003°
Longitude
1.33513°
Altitude
830.242 km
Speed
7.437 km/s
True Right ascension
04h 00m 57s
True Declination
0° 00' 00"
Sunlit
Object was in full shadow at epoch
Visualization orbit readout
Latitude
Unknown
Longitude
Unknown
Altitude
Unknown
Speed
Unknown
Apparent Right ascension
Unknown
Apparent Declination
Unknown
Sunlit
N/A
Visualization observer readout
Local Sidereal Time
05:18:53
Azimuth
Unknown
Elevation
Unknown
Doppler factor
Unknown
Orbital elements
Apogee altitude
839.527 km
Perigee altitude
807.827 km
Semi-major axis
7,201.814 km
Eccentricity
0.0022
Inclination
98.6432°
RAAN
60.2407°
Arg. of periapsis
93.1523°
True anomaly
266.96534°
Mean anomaly
267.2172°
Eccentric anomaly
267.09127°
Mean motion
3.55124 °/min
Orbital period
101.37 mins
BSTAR
0.00039478
Loading maneuver chart data...
Computing Atmospheric mass density...
Loading historical data...
Loading historical data...
Loading historical data...
Loading historical data...
Loading historical data...
Loading historical data...
Loading historical data...

Documentation

Showing up to 5 results
|